Regional Weather Roundup
Issued by NWS

Home | Current Version | Previous Version | Text Only | Print | Product List | Glossary On
Versions: 1 2 3 4 5 6 7 8 9 10 11 12 13 14 15 16 17 18 19 20 21 22 23 24 25 26 27 28 29 30 31 32 33 34 35 36 37 38 39 40 41 42 43 44 45 46 47 48 49 50
000
ASUS43 KBIS 291131
RWRND
NORTH DAKOTA REGIONAL WEATHER ROUNDUP
NATIONAL WEATHER SERVICE EASTERN NORTH DAKOTA/GRAND FORKS ND
600 AM CDT MON MAY 29 2017

  NOTE: "FAIR" INDICATES FEW OR NO CLOUDS BELOW 12,000 FEET WITH NO
  SIGNIFICANT WEATHER AND/OR OBSTRUCTIONS TO VISIBILITY.

NDZ001>003-009>011-017-291200-
...NORTHWEST NORTH DAKOTA...

CITY           SKY/WX    TMP DP  RH WIND       PRES   REMARKS
WILLISTON      FAIR      45  38  76 NW12      30.11R
MINOT          CLOUDY    52  44  74 NW16      30.00R
MINOT AFB      CLOUDY    51  45  78 NW18      29.99R
$$

NDZ018>021-031>035-040>046-291200-
...SOUTHWEST NORTH DAKOTA...

CITY           SKY/WX    TMP DP  RH WIND       PRES   REMARKS
BISMARCK       CLOUDY    52  43  71 NW13G21   30.01S
DICKINSON      FAIR      38  35  89 W8        30.08R WCI  32
GARRISON         N/A     45  42  89 NW13      30.01R
HETTINGER      FAIR      35  32  88 CALM      30.12R
$$

NDZ004>008-012>016-024-026-027-054-291200-
...NORTHEAST NORTH DAKOTA...

CITY           SKY/WX    TMP DP  RH WIND       PRES   REMARKS
GRAND FORKS    LGT RAIN  51  49  92 NW14      29.83R
GRAND FORKS AF CLOUDY    49  49 100 N12       29.84R
DEVILS LAKE    CLOUDY    50  46  86 NW15      29.89R
$$

NDZ022-023-025-028>030-036>039-047>053-291200-
...SOUTHEAST NORTH DAKOTA...

CITY           SKY/WX    TMP DP  RH WIND       PRES   REMARKS
JAMESTOWN      CLOUDY    50  47  89 NW16      29.89R
FARGO          LGT RAIN  51  49  92 NW13      29.83R
WAHPETON       CLOUDY    52  45  76 NW13G20   29.84R
$$




USA.gov is the U.S. government's official web portal to all federal, state and local government web resources and services.